• In Romania
  • List of Countries
  • For 7 days
  • Water Temperature
  • Satellite Maps
  • Weather Map
  • Weather Widgets
  • user-avatar
    Login

    Hourly Weather Satif

    Today, 20 November, Monday

    Time Temperature Precipitation Wind Pressure Humidity
    00:00 +6°C° 0 mm 1 mps 674 mmHg 68%
    01:00 +6°C° 0 mm 1 mps 674 mmHg 66%
    02:00 +6°C° 0 mm 1 mps 674 mmHg 65%
    03:00 +6°C° 0 mm 1 mps 674 mmHg 63%
    04:00 +5°C° 0 mm 1 mps 674 mmHg 61%
    05:00 +5°C° 0 mm 1 mps 674 mmHg 59%
    06:00 +5°C° 0 mm 1 mps 674 mmHg 56%
    07:00 +6°C° 0 mm 0 mps 675 mmHg 48%
    08:00 +8°C° 0 mm 0 mps 676 mmHg 40%
    09:00 +10°C° 0 mm 0 mps 676 mmHg 32%
    10:00 +11°C° 0 mm 0 mps 677 mmHg 28%
    11:00 +13°C° 0 mm 0 mps 677 mmHg 25%
    12:00 +14°C° 0 mm 0 mps 677 mmHg 21%
    13:00 +15°C° 0 mm 1 mps 677 mmHg 22%
    14:00 +15°C° 0 mm 1 mps 677 mmHg 23%
    15:00 +15°C° 0 mm 1 mps 676 mmHg 24%
    16:00 +13°C° 0 mm 1 mps 676 mmHg 30%
    17:00 +12°C° 0 mm 1 mps 676 mmHg 36%
    18:00 +9°C° 0 mm 0 mps 675 mmHg 43%
    19:00 +9°C° 0 mm 1 mps 675 mmHg 42%
    20:00 +9°C° 0 mm 1 mps 676 mmHg 42%
    21:00 +9°C° 0 mm 1 mps 676 mmHg 41%
    22:00 +9°C° 0 mm 1 mps 676 mmHg 41%
    23:00 +8°C° 0 mm 1 mps 675 mmHg 40%

    Tomorrow, 21 November, Tuesday

    Time Temperature Precipitation Wind Pressure Humidity
    00:00 +7°C° 0 mm 2 mps 675 mmHg 39%
    01:00 +7°C° 0 mm 2 mps 675 mmHg 40%
    02:00 +7°C° 0 mm 2 mps 675 mmHg 40%
    03:00 +6°C° 0 mm 2 mps 674 mmHg 41%
    04:00 +6°C° 0 mm 2 mps 674 mmHg 41%
    05:00 +6°C° 0 mm 2 mps 674 mmHg 42%
    06:00 +5°C° 0 mm 2 mps 674 mmHg 42%
    07:00 +7°C° 0 mm 2 mps 675 mmHg 39%
    08:00 +9°C° 0 mm 2 mps 675 mmHg 35%
    09:00 +12°C° 0 mm 2 mps 676 mmHg 32%
    10:00 +13°C° 0 mm 2 mps 676 mmHg 29%
    11:00 +14°C° 0 mm 2 mps 676 mmHg 27%
    12:00 +15°C° 0 mm 2 mps 676 mmHg 24%
    13:00 +15°C° 0 mm 2 mps 676 mmHg 25%
    14:00 +15°C° 0 mm 2 mps 675 mmHg 26%
    15:00 +15°C° 0 mm 2 mps 675 mmHg 26%
    16:00 +14°C° 0 mm 2 mps 675 mmHg 32%
    17:00 +12°C° 0 mm 1 mps 674 mmHg 37%
    18:00 +10°C° 0 mm 1 mps 674 mmHg 43%
    19:00 +10°C° 0 mm 1 mps 674 mmHg 42%
    20:00 +9°C° 0 mm 1 mps 674 mmHg 42%
    21:00 +9°C° 0 mm 1 mps 674 mmHg 42%
    22:00 +8°C° 0 mm 2 mps 674 mmHg 41%
    23:00 +7°C° 0 mm 2 mps 674 mmHg 41%

    Day after tomorrow, 22 November, Wednesday

    Time Temperature Precipitation Wind Pressure Humidity
    00:00 +7°C° 0 mm 2 mps 673 mmHg 40%
    01:00 +7°C° 0 mm 2 mps 673 mmHg 41%
    02:00 +6°C° 0 mm 2 mps 673 mmHg 41%
    03:00 +6°C° 0 mm 2 mps 672 mmHg 42%
    04:00 +6°C° 0 mm 2 mps 672 mmHg 42%
    05:00 +5°C° 0 mm 2 mps 672 mmHg 41%
    06:00 +5°C° 0 mm 2 mps 672 mmHg 41%
    07:00 +7°C° 0 mm 2 mps 673 mmHg 38%
    08:00 +9°C° 0 mm 2 mps 674 mmHg 34%
    09:00 +12°C° 0 mm 2 mps 674 mmHg 30%
    10:00 +13°C° 0 mm 2 mps 674 mmHg 27%
    11:00 +14°C° 0 mm 2 mps 674 mmHg 24%
    12:00 +15°C° 0 mm 2 mps 674 mmHg 21%
    13:00 +15°C° 0 mm 2 mps 674 mmHg 21%
    14:00 +15°C° 0 mm 2 mps 674 mmHg 22%
    15:00 +15°C° 0 mm 2 mps 674 mmHg 22%
    16:00 +14°C° 0 mm 2 mps 674 mmHg 27%
    17:00 +12°C° 0 mm 1 mps 673 mmHg 31%
    18:00 +10°C° 0 mm 1 mps 673 mmHg 36%
    19:00 +10°C° 0 mm 1 mps 673 mmHg 35%
    20:00 +9°C° 0 mm 1 mps 674 mmHg 35%
    21:00 +9°C° 0 mm 1 mps 674 mmHg 35%
    22:00 +9°C° 0 mm 1 mps 674 mmHg 35%
    23:00 +8°C° 0 mm 1 mps 673 mmHg 34%

    23 November, Thursday

    Time Temperature Precipitation Wind Pressure Humidity
    00:00 +8°C° 0 mm 1 mps 673 mmHg 34%
    01:00 +7°C° 0 mm 1 mps 673 mmHg 34%
    02:00 +7°C° 0 mm 1 mps 673 mmHg 34%
    03:00 +7°C° 0 mm 1 mps 673 mmHg 34%
    04:00 +6°C° 0 mm 1 mps 673 mmHg 34%
    05:00 +6°C° 0 mm 1 mps 673 mmHg 34%
    06:00 +6°C° 0 mm 1 mps 673 mmHg 33%
    07:00 +7°C° 0 mm 2 mps 674 mmHg 31%
    08:00 +9°C° 0 mm 2 mps 675 mmHg 29%
    09:00 +12°C° 0 mm 2 mps 676 mmHg 26%
    10:00 +13°C° 0 mm 2 mps 676 mmHg 24%
    11:00 +14°C° 0 mm 2 mps 676 mmHg 22%
    12:00 +15°C° 0 mm 2 mps 676 mmHg 20%
    13:00 +15°C° 0 mm 2 mps 676 mmHg 21%
    14:00 +15°C° 0 mm 2 mps 676 mmHg 22%
    15:00 +15°C° 0 mm 2 mps 676 mmHg 23%
    16:00 +13°C° 0 mm 1 mps 676 mmHg 28%
    17:00 +12°C° 0 mm 1 mps 675 mmHg 32%
    18:00 +10°C° 0 mm 1 mps 675 mmHg 37%
    19:00 +10°C° 0 mm 1 mps 675 mmHg 36%
    20:00 +9°C° 0 mm 1 mps 675 mmHg 36%
    21:00 +9°C° 0 mm 1 mps 675 mmHg 35%
    22:00 +9°C° 0 mm 1 mps 675 mmHg 35%
    23:00 +7°C° 0 mm 2 mps 675 mmHg 35%

    24 November, Friday

    Time Temperature Precipitation Wind Pressure Humidity
    00:00 +7°C° 0 mm 2 mps 675 mmHg 35%
    01:00 +7°C° 0 mm 2 mps 675 mmHg 35%
    02:00 +6°C° 0 mm 2 mps 674 mmHg 35%
    03:00 +6°C° 0 mm 2 mps 674 mmHg 36%
    04:00 +6°C° 0 mm 2 mps 674 mmHg 37%
    05:00 +6°C° 0 mm 2 mps 674 mmHg 38%
    06:00 +6°C° 0 mm 2 mps 674 mmHg 39%
    07:00 +7°C° 0 mm 2 mps 675 mmHg 37%
    08:00 +9°C° 0 mm 2 mps 676 mmHg 35%
    09:00 +12°C° 0 mm 2 mps 677 mmHg 33%
    10:00 +13°C° 0 mm 2 mps 677 mmHg 30%
    11:00 +14°C° 0 mm 2 mps 677 mmHg 28%
    12:00 +16°C° 0 mm 2 mps 677 mmHg 25%
    13:00 +16°C° 0 mm 2 mps 677 mmHg 26%
    14:00 +16°C° 0 mm 2 mps 676 mmHg 27%
    15:00 +16°C° 0 mm 2 mps 676 mmHg 27%
    16:00 +14°C° 0 mm 2 mps 676 mmHg 32%
    17:00 +12°C° 0 mm 2 mps 676 mmHg 36%
    18:00 +10°C° 0 mm 2 mps 675 mmHg 40%
    19:00 +9°C° 0 mm 2 mps 676 mmHg 41%
    20:00 +9°C° 0 mm 2 mps 676 mmHg 43%
    21:00 +8°C° 0 mm 2 mps 676 mmHg 44%
    22:00 +8°C° 0 mm 2 mps 676 mmHg 45%
    23:00 +8°C° 0 mm 2 mps 675 mmHg 45%

    25 November, Saturday

    Time Temperature Precipitation Wind Pressure Humidity
    00:00 +8°C° 0 mm 2 mps 675 mmHg 46%
    01:00 +7°C° 0 mm 2 mps 675 mmHg 47%
    02:00 +7°C° 0 mm 2 mps 675 mmHg 48%
    03:00 +7°C° 0 mm 2 mps 675 mmHg 49%
    04:00 +7°C° 0 mm 2 mps 675 mmHg 50%
    05:00 +6°C° 0 mm 2 mps 675 mmHg 51%
    06:00 +6°C° 0 mm 2 mps 675 mmHg 52%
    07:00 +8°C° 0 mm 3 mps 676 mmHg 48%
    08:00 +10°C° 0 mm 3 mps 676 mmHg 45%
    09:00 +11°C° 0 mm 3 mps 677 mmHg 42%
    10:00 +12°C° 0 mm 3 mps 677 mmHg 38%
    11:00 +14°C° 0 mm 3 mps 677 mmHg 34%
    12:00 +16°C° 0 mm 3 mps 677 mmHg 31%
    13:00 +16°C° 0 mm 3 mps 677 mmHg 32%
    14:00 +16°C° 0 mm 2 mps 677 mmHg 33%
    15:00 +16°C° 0 mm 2 mps 676 mmHg 33%
    16:00 +15°C° 0 mm 2 mps 676 mmHg 38%
    17:00 +13°C° 0 mm 2 mps 676 mmHg 43%
    18:00 +10°C° 0 mm 2 mps 676 mmHg 48%
    19:00 +10°C° 0 mm 2 mps 676 mmHg 50%
    20:00 +10°C° 0 mm 2 mps 676 mmHg 53%
    21:00 +9°C° 0 mm 2 mps 676 mmHg 55%
    22:00 +9°C° 0 mm 2 mps 676 mmHg 57%
    23:00 +9°C° 0 mm 3 mps 676 mmHg 58%
    Show more